FW0655 Weather Reports


Display with metric or nautical units.
time (UTC)temp
F
wind
direction
speed
MPH
gust
MPH
rain 1hr
in
rain 24hr
in
rain mn
in
humidity
%
barometer
mb
20260905010022 69 5 0.0 3.0 0.00 0.92 0.03 85 1011.5
20260905004526 69 5 1.0 2.0 0.00 0.92 0.03 84 1011.4
20260905003029 70 5 0.0 0.0 0.00 0.92 0.03 83 1011.1
20260905001541 70 5 0.0 1.0 0.00 0.92 0.03 82 1011.3
20260905000018 71 5 0.0 2.0 0.00 0.92 0.03 81 1010.9
20260904234522 71 5 0.0 1.0 0.00 0.92 0.03 80 1010.9
20260904233036 72 5 1.0 2.0 0.00 0.92 0.03 77 1010.8
20260904231519 73 5 0.0 1.0 0.00 0.92 0.03 75 1010.9
20260904230124 74 5 1.0 2.0 0.00 0.92 0.03 73 1010.7
20260904224514 74 5 1.0 3.0 0.00 0.92 0.03 71 1010.7
20260904223015 74 5 0.0 5.0 0.00 0.92 0.03 67 1010.8
20260904221513 75 9 1.0 4.0 0.00 0.92 0.03 66 1010.8
20260904220013 75 10 2.0 4.0 0.00 0.92 0.03 65 1010.6
20260904214512 75 10 0.0 5.0 0.00 0.92 0.03 64 1010.6
20260904213021 75 360 3.0 9.0 0.00 0.92 0.03 63 1010.7
20260904211510 76 337 1.0 4.0 0.00 0.92 0.03 65 1010.8
20260904210010 76 29 1.0 3.0 0.00 0.92 0.03 66 1011.0
20260904204512 76 32 0.0 6.0 0.00 0.92 0.03 64 1010.9
20260904203010 77 32 2.0 8.0 0.00 0.92 0.03 63 1011.0
20260904201508 76 14 2.0 5.0 0.00 0.92 0.03 63 1011.1
20260904200008 76 322 2.0 6.0 0.00 0.92 0.03 64 1011.4
20260904194507 76 32 3.0 9.0 0.00 0.92 0.03 65 1011.4
20260904193007 76 28 2.0 14.0 0.00 0.92 0.03 63 1011.6
20260904191506 78 343 2.0 5.0 0.00 0.92 0.03 58 1011.6
20260904190005 78 330 4.0 9.0 0.00 0.92 0.03 59 1011.5
20260904184503 77 10 3.0 8.0 0.00 0.92 0.03 58 1011.8
20260904183002 77 19 2.0 10.0 0.00 0.92 0.03 61 1011.8
20260904181600 77 18 3.0 10.0 0.00 0.92 0.03 61 1011.9
20260904180104 77 351 3.0 10.0 0.00 0.92 0.03 61 1012.1
20260904174558 77 360 3.0 6.0 0.00 0.92 0.03 61 1012.3
20260904173104 76 324 3.0 12.0 0.00 0.92 0.03 64 1012.3
20260904171557 76 15 1.0 4.0 0.00 0.92 0.03 66 1012.4
20260904170055 77 27 2.0 8.0 0.00 0.92 0.03 67 1012.7
20260904164554 76 333 1.0 4.0 0.00 0.92 0.03 68 1012.5
20260904163052 74 5 2.0 5.0 0.00 0.92 0.03 70 1012.6
20260904161559 74 28 3.0 6.0 0.00 0.92 0.03 71 1012.7
20260904160057 74 44 5.0 11.0 0.00 0.92 0.03 67 1012.7
20260904154549 74 5 3.0 9.0 0.00 0.92 0.03 68 1012.7
20260904153047 73 26 5.0 9.0 0.00 0.92 0.03 68 1012.7
20260904151549 73 5 2.0 8.0 0.00 0.92 0.03 73 1012.6
20260904150041 73 14 0.0 3.0 0.00 0.92 0.03 75 1012.7
20260904144551 72 360 3.0 6.0 0.00 0.92 0.03 74 1012.8
20260904143054 71 33 1.0 6.0 0.00 0.92 0.03 76 1012.6
20260904141536 71 346 3.0 5.0 0.00 0.92 0.03 77 1013.0
20260904140038 70 17 4.0 10.0 0.00 0.92 0.03 77 1013.0
20260904134535 69 13 7.0 12.0 0.00 0.92 0.03 80 1012.8
20260904133033 68 323 1.0 5.0 0.00 0.92 0.03 90 1012.8
20260904131530 67 260 1.0 3.0 0.00 0.92 0.03 94 1012.5
20260904130029 67 258 0.0 2.0 0.00 0.92 0.03 94 1012.7
20260904124529 66 258 2.0 3.0 0.00 0.92 0.03 94 1012.7
20260904123029 65 259 0.0 1.0 0.00 0.92 0.03 94 1013.0
20260904121527 65 259 0.0 2.0 0.00 0.92 0.03 94 1012.8
20260904120026 65 259 1.0 2.0 0.00 0.92 0.03 94 1012.7
20260904114528 65 260 0.0 2.0 0.00 0.92 0.03 94 1012.5
20260904113024 65 260 2.0 4.0 0.00 0.92 0.03 94 1012.6
20260904111521 66 269 0.0 2.0 0.00 0.92 0.03 94 1012.5
20260904110018 67 155 0.0 3.0 0.00 0.92 0.03 94 1012.3
20260904104516 67 172 1.0 3.0 0.00 0.92 0.03 94 1012.1
20260904103016 68 169 0.0 2.0 0.00 0.92 0.03 94 1012.2
20260904101514 68 169 0.0 2.0 0.00 0.92 0.03 94 1011.9
20260904100013 68 169 0.0 2.0 0.00 0.92 0.03 94 1011.9
20260904094516 68 169 0.0 2.0 0.00 0.92 0.03 94 1011.7
20260904093011 68 169 1.0 3.0 0.00 0.92 0.03 94 1011.8
20260904091525 69 169 0.0 1.0 0.00 0.92 0.03 94 1011.8
20260904090012 69 169 1.0 2.0 0.00 0.92 0.03 94 1011.6
20260904084506 69 198 2.0 4.0 0.00 0.92 0.03 94 1011.5
20260904083011 69 198 1.0 2.0 0.00 0.92 0.03 94 1011.4
20260904081506 69 198 1.0 3.0 0.00 0.92 0.03 94 1011.1
20260904080009 69 198 0.0 2.0 0.00 0.92 0.03 94 1011.0
20260904074506 69 198 0.0 2.0 0.00 0.92 0.03 94 1010.7
20260904073001 69 198 1.0 2.0 0.00 0.92 0.03 94 1010.5
20260904071626 69 198 0.0 4.0 0.00 0.92 0.03 94 1010.7
20260904070112 69 198 1.0 2.0 0.00 0.92 0.03 94 1010.8
20260904064607 70 198 0.0 1.0 0.00 0.93 0.03 94 1010.7
20260904063059 70 198 0.0 2.0 0.00 0.93 0.03 94 1010.5
20260904061554 70 198 0.0 2.0 0.00 0.93 0.03 94 1010.5
20260904060053 71 198 0.0 1.0 0.00 0.93 0.03 94 1010.7
20260904054552 71 198 0.0 2.0 0.00 0.93 0.03 93 1010.9
20260904053101 71 198 0.0 1.0 0.00 0.93 0.03 93 1010.9
20260904051550 71 198 0.0 1.0 0.01 0.93 0.03 93 1011.0
20260904050052 71 198 0.0 3.0 0.02 0.93 0.03 93 1011.1
20260904044556 71 198 0.0 1.0 0.57 1.04 0.03 93 1011.2
20260904043049 71 198 0.0 2.0 0.69 1.03 0.02 93 1011.2
20260904041547 71 198 2.0 6.0 0.71 1.03 0.02 93 1011.2
20260904040044 71 34 3.0 8.0 0.90 1.02 0.01 92 1011.0
20260904034544 72 13 1.0 3.0 0.32 0.57 0.44 93 1011.8
20260904033053 72 13 0.0 4.0 0.22 0.48 0.34 92 1011.0
20260904031557 72 121 1.0 3.0 0.19 0.45 0.31 92 1011.0
20260904030040 72 116 0.0 0.0 0.00 0.26 0.12 91 1011.0
20260904024540 72 116 1.0 3.0 0.00 0.56 0.12 91 1011.0
20260904023038 72 174 0.0 1.0 0.00 0.56 0.12 91 1010.8
20260904021547 72 174 0.0 1.0 0.00 0.56 0.12 91 1011.1
20260904020042 73 174 0.0 1.0 0.00 0.56 0.12 90 1011.4
20260904014537 72 174 0.0 2.0 0.00 0.66 0.12 90 1011.3
20260904013040 73 174 0.0 1.0 0.00 0.66 0.12 89 1011.4
20260904011538 73 174 1.0 3.0 0.00 0.66 0.12 89 1011.3